W2CS Weather Reports


time (UTC)temp
C
wind
direction
speed
KPH
gust
KPH
rain 1hr
cm
rain 24hr
cm
rain mn
cm
humidity
%
barometer
mb
20260510071038 11 0 0.0 0.0 0.00 0.00 0.00 94 1011.9
20260510070538 11 0 0.0 0.0 0.00 0.00 0.00 94 1011.9
20260510070059 10 0 0.0 0.0 0.00 0.00 0.00 94 1011.9
20260510065539 10 0 0.0 0.0 0.00 0.00 0.00 94 1011.8
20260510065039 10 0 0.0 0.0 0.00 0.00 0.00 94 1011.7
20260510064605 10 0 0.0 0.0 0.00 0.00 0.00 94 1011.8
20260510064038 10 0 0.0 0.0 0.00 0.00 0.00 94 1011.7
20260510063538 10 0 0.0 0.0 0.00 0.00 0.00 94 1011.6
20260510063049 10 0 0.0 3.2 0.00 0.00 0.00 94 1011.7
20260510062538 11 0 0.0 3.2 0.00 0.00 0.00 94 1011.6
20260510062041 11 0 0.0 3.2 0.00 0.00 0.00 94 1011.7
20260510061551 11 0 0.0 0.0 0.00 0.00 0.00 94 1011.9
20260510061039 11 0 0.0 0.0 0.00 0.00 0.00 94 1011.9
20260510060542 11 0 0.0 0.0 0.00 0.00 0.00 94 1011.9
20260510060052 11 0 0.0 0.0 0.00 0.00 0.00 94 1011.8
20260510055538 11 0 0.0 0.0 0.00 0.00 0.00 94 1011.8
20260510055039 11 0 0.0 0.0 0.00 0.00 0.00 94 1011.8
20260510054552 11 0 0.0 0.0 0.00 0.00 0.00 94 1011.9
20260510054039 11 0 0.0 1.6 0.00 0.00 0.00 94 1011.9
20260510053539 11 0 0.0 1.6 0.00 0.00 0.00 94 1011.8
20260510053051 11 195 0.0 3.2 0.00 0.00 0.00 94 1011.8
20260510052538 11 0 0.0 3.2 0.00 0.00 0.00 94 1011.8
20260510052040 11 0 0.0 0.0 0.00 0.00 0.00 94 1011.9
20260510051557 11 0 0.0 1.6 0.00 0.00 0.00 94 1011.8
20260510051039 11 0 0.0 1.6 0.00 0.00 0.00 94 1011.8
20260510050539 11 0 0.0 1.6 0.00 0.00 0.00 94 1011.7
20260510050051 11 0 0.0 1.6 0.00 0.00 0.00 94 1011.8
20260510045538 11 0 0.0 1.6 0.00 0.00 0.00 94 1011.9
20260510045039 11 0 0.0 0.0 0.00 0.00 0.00 94 1011.8
20260510044559 11 0 0.0 0.0 0.00 0.00 0.00 94 1011.8
20260510044038 11 0 0.0 0.0 0.00 0.00 0.00 94 1011.8
20260510043538 11 0 0.0 0.0 0.00 0.00 0.00 94 1011.8
20260510043054 11 0 0.0 4.8 0.00 0.00 0.00 94 1011.8
20260510042541 11 0 0.0 4.8 0.00 0.00 0.00 94 1011.8
20260510042039 11 0 0.0 1.6 0.00 0.00 0.00 94 1011.9
20260510041634 11 0 0.0 1.6 0.00 0.00 0.00 94 1012.0
20260510041041 11 0 0.0 3.2 0.00 0.00 0.00 94 1012.0
20260510040540 11 0 0.0 3.2 0.00 0.00 0.00 94 1012.0
20260510040053 11 184 0.0 3.2 0.00 0.00 0.00 94 1012.0
20260510035538 11 0 0.0 4.8 0.00 0.00 0.00 94 1011.9
20260510035038 11 184 1.6 4.8 0.00 0.00 0.00 94 1011.8
20260510034602 11 75 1.6 4.8 0.00 0.00 0.00 94 1011.9
20260510034039 11 0 0.0 4.8 0.00 0.00 0.00 94 1011.9
20260510033538 11 237 0.0 3.2 0.00 0.00 0.00 94 1012.1
20260510033050 11 0 0.0 3.2 0.00 0.00 0.00 94 1012.1
20260510032537 11 0 0.0 3.2 0.00 0.00 0.00 94 1012.0
20260510032041 11 0 0.0 3.2 0.00 0.00 0.00 94 1011.8
20260510031602 10 237 0.0 3.2 0.00 0.00 0.00 94 1011.9
20260510031038 10 0 0.0 8.0 0.00 0.00 0.00 94 1012.0
20260510030537 10 0 0.0 8.0 0.00 0.00 0.00 94 1011.9
20260510030057 10 0 0.0 8.0 0.00 0.00 0.00 94 1011.9
20260510025538 10 0 0.0 3.2 0.00 0.00 0.00 94 1012.0
20260510025043 10 0 0.0 1.6 0.00 0.00 0.00 94 1012.1
20260510024552 10 0 0.0 1.6 0.00 0.00 0.00 94 1012.1
20260510024042 10 0 0.0 1.6 0.00 0.00 0.00 94 1012.2
20260510023538 10 0 0.0 1.6 0.00 0.00 0.00 94 1012.1
20260510023049 10 0 0.0 1.6 0.00 0.00 0.00 93 1012.2
20260510022538 10 0 0.0 1.6 0.00 0.00 0.00 93 1012.1
20260510022038 10 0 0.0 1.6 0.00 0.00 0.00 93 1012.2
20260510021552 10 0 0.0 1.6 0.00 0.00 0.00 93 1012.2
20260510021039 10 0 0.0 1.6 0.00 0.00 0.00 93 1012.1
20260510020539 10 0 0.0 1.6 0.00 0.00 0.00 93 1012.3
20260510020048 10 0 0.0 3.2 0.00 0.00 0.00 93 1012.4
20260510015541 10 0 0.0 3.2 0.00 0.00 0.00 93 1012.7
20260510015036 10 0 0.0 1.6 0.00 0.00 0.00 93 1012.8
20260510014550 10 0 0.0 4.8 0.00 0.00 0.00 93 1013.0
20260510014038 10 0 0.0 4.8 0.00 0.00 0.00 93 1013.0
20260510013539 10 0 0.0 3.2 0.00 0.00 0.00 93 1013.0
20260510013052 10 0 0.0 4.8 0.00 0.00 0.00 93 1013.0
20260510012538 10 0 0.0 6.4 0.00 0.00 0.00 93 1013.0
20260510012038 10 0 0.0 6.4 0.00 0.00 0.00 93 1013.0
20260510011549 10 0 0.0 0.0 0.00 0.00 0.00 93 1013.0
20260510011037 10 0 0.0 0.0 0.00 0.00 0.00 93 1013.0
20260510010537 10 0 0.0 3.2 0.00 0.00 0.00 93 1013.1
20260510010047 10 0 0.0 3.2 0.00 0.00 0.00 93 1013.1
20260510005538 10 0 0.0 3.2 0.00 0.00 0.00 93 1013.0
20260510005037 10 0 0.0 3.2 0.00 0.00 0.00 93 1013.0
20260510004548 10 0 0.0 3.2 0.00 0.00 0.00 93 1013.0
20260510004037 10 0 0.0 3.2 0.00 0.00 0.00 93 1013.2
20260510003547 10 287 0.0 3.2 0.00 0.00 0.00 93 1013.2
20260510003055 10 0 0.0 3.2 0.00 0.00 0.00 93 1013.3
20260510002536 11 0 0.0 3.2 0.00 0.00 0.00 93 1013.2
20260510002040 11 0 0.0 3.2 0.00 0.00 0.00 93 1013.3
20260510001552 11 0 0.0 3.2 0.00 0.00 0.00 93 1013.4
20260510001038 11 0 0.0 3.2 0.00 0.00 0.00 93 1013.4
20260510000539 11 316 0.0 3.2 0.00 0.00 0.00 93 1013.3
20260509235538 11 0 0.0 1.6 0.00 0.00 0.00 93 1013.5
20260509235038 11 0 0.0 1.6 0.00 0.00 0.00 93 1013.6
20260509234601 11 0 0.0 1.6 0.00 0.00 0.00 93 1013.6
20260509234038 11 0 0.0 1.6 0.00 0.00 0.00 93 1013.7
20260509233536 11 0 0.0 3.2 0.00 0.00 0.00 92 1013.8
20260509233056 11 0 0.0 3.2 0.00 0.00 0.00 92 1013.8
20260509232540 11 0 0.0 3.2 0.00 0.00 0.00 92 1013.8
20260509232039 11 75 0.0 3.2 0.00 0.00 0.00 92 1013.7
20260509231608 11 0 0.0 3.2 0.00 0.00 0.00 92 1013.8
20260509231041 11 0 0.0 6.4 0.00 0.00 0.00 92 1013.6
20260509230539 11 329 0.0 6.4 0.00 0.00 0.00 92 1013.6
20260509225540 11 253 1.6 4.8 0.00 0.00 0.00 92 1013.6
20260509225040 11 24 1.6 8.0 0.00 0.00 0.00 92 1013.6
20260509224557 11 0 1.6 8.0 0.00 0.00 0.00 92 1013.6
20260509224041 11 297 1.6 9.7 0.00 0.00 0.00 92 1013.5
20260509223538 11 51 1.6 9.7 0.00 0.00 0.00 92 1013.5
20260509223049 11 57 1.6 8.0 0.00 0.00 0.00 92 1013.4
20260509222543 11 0 0.0 8.0 0.00 0.00 0.00 92 1013.5
20260509222038 11 103 0.0 4.8 0.00 0.00 0.00 91 1013.4
20260509221557 11 0 0.0 6.4 0.00 0.00 0.00 92 1013.5
20260509221041 11 0 0.0 6.4 0.00 0.00 0.00 91 1013.3
20260509220537 11 359 1.6 6.4 0.00 0.00 0.00 91 1013.3
20260509220050 11 66 0.0 3.2 0.00 0.00 0.00 91 1013.3
20260509215539 11 0 0.0 3.2 0.00 0.00 0.00 91 1013.3
20260509215038 12 66 0.0 1.6 0.00 0.00 0.00 91 1013.2
20260509214551 12 0 0.0 3.2 0.00 0.00 0.00 91 1013.0
20260509214038 12 0 0.0 3.2 0.00 0.00 0.00 90 1012.9
20260509213539 12 0 0.0 4.8 0.00 0.00 0.00 90 1012.9
20260509213053 12 0 0.0 4.8 0.00 0.00 0.00 90 1012.9
20260509212539 12 0 0.0 4.8 0.00 0.00 0.00 90 1012.8
20260509212043 12 116 0.0 3.2 0.00 0.00 0.00 90 1012.7
20260509211558 12 232 0.0 3.2 0.00 0.00 0.00 90 1012.7
20260509211038 12 0 0.0 4.8 0.00 0.00 0.00 89 1012.7
20260509210538 12 0 0.0 4.8 0.00 0.00 0.00 89 1012.4
20260509210104 13 0 0.0 4.8 0.00 0.00 0.00 88 1012.5
20260509205541 13 0 0.0 4.8 0.00 0.00 0.00 88 1012.8
20260509205039 13 204 1.6 3.2 0.00 0.00 0.00 87 1012.8
20260509204549 13 0 0.0 6.4 0.00 0.00 0.00 86 1012.7
20260509204037 13 18 0.0 6.4 0.00 0.00 0.00 85 1012.5
20260509203541 13 0 0.0 4.8 0.00 0.00 0.00 85 1012.6
20260509203053 14 322 0.0 4.8 0.00 0.00 0.00 85 1012.6
20260509202539 14 235 0.0 8.0 0.00 0.00 0.00 85 1012.6
20260509202042 14 235 1.6 8.0 0.00 0.00 0.00 84 1012.8
20260509201558 14 226 0.0 3.2 0.00 0.00 0.00 85 1012.8
20260509201038 14 0 0.0 4.8 0.00 0.00 0.00 84 1012.7
20260509200538 14 0 0.0 6.4 0.00 0.00 0.00 84 1012.7
20260509195541 14 40 0.0 6.4 0.00 0.00 0.00 84 1012.9
20260509195039 14 241 0.0 6.4 0.00 0.00 0.00 85 1012.8
20260509194549 14 332 0.0 8.0 0.00 0.00 0.00 84 1013.0
20260509194039 14 213 0.0 8.0 0.00 0.00 0.00 85 1012.9
20260509193539 14 0 1.6 6.4 0.00 0.00 0.00 85 1012.9
20260509193053 14 0 0.0 6.4 0.00 0.00 0.00 85 1013.0
20260509192543 14 192 0.0 4.8 0.00 0.00 0.00 84 1012.9
20260509192039 14 117 1.6 4.8 0.00 0.00 0.00 84 1013.0
20260509191556 15 0 0.0 4.8 0.00 0.00 0.00 84 1013.0
20260509191040 15 231 1.6 4.8 0.00 0.00 0.00 83 1013.4
20260509190536 15 22 1.6 4.8 0.00 0.00 0.00 83 1013.3
20260509190107 15 276 0.0 4.8 0.00 0.00 0.00 83 1013.2
20260509185539 15 40 1.6 4.8 0.00 0.00 0.00 84 1013.2
20260509185039 15 0 0.0 6.4 0.00 0.00 0.00 84 1013.2
20260509184556 15 143 1.6 6.4 0.00 0.00 0.00 83 1013.2
20260509184038 15 107 1.6 4.8 0.00 0.00 0.00 82 1013.2
20260509183541 15 292 0.0 3.2 0.00 0.00 0.00 81 1013.3
20260509183051 15 0 0.0 6.4 0.00 0.00 0.00 82 1013.2
20260509182538 16 0 0.0 6.4 0.00 0.00 0.00 80 1013.3
20260509182041 16 0 0.0 4.8 0.00 0.00 0.00 79 1013.5
20260509181550 16 252 0.0 4.8 0.00 0.00 0.00 78 1013.5
20260509181038 16 0 0.0 4.8 0.00 0.00 0.00 79 1013.5
20260509180537 16 42 0.0 4.8 0.00 0.00 0.00 79 1013.5
20260509180059 16 42 0.0 4.8 0.00 0.00 0.00 78 1013.5
20260509175538 16 332 1.6 4.8 0.00 0.00 0.00 78 1013.6
20260509175039 16 120 0.0 3.2 0.00 0.00 0.00 79 1013.6
20260509174554 16 0 0.0 4.8 0.00 0.00 0.00 80 1013.6
20260509174042 16 0 0.0 4.8 0.00 0.00 0.00 81 1013.6
20260509173538 16 0 0.0 4.8 0.00 0.00 0.00 83 1013.6
20260509173100 16 216 0.0 3.2 0.00 0.00 0.00 82 1013.7
20260509172539 15 0 0.0 3.2 0.00 0.00 0.00 82 1013.7
20260509172039 15 0 0.0 3.2 0.00 0.00 0.00 83 1013.8
20260509171550 15 198 0.0 3.2 0.00 0.00 0.00 83 1013.8
20260509171039 15 0 0.0 3.2 0.00 0.00 0.00 84 1013.9
20260509170541 15 0 0.0 3.2 0.00 0.00 0.00 83 1014.1
20260509170059 15 0 0.0 3.2 0.00 0.00 0.00 82 1014.1
20260509165542 15 0 0.0 3.2 0.00 0.00 0.00 83 1014.1
20260509165039 15 0 0.0 3.2 0.00 0.00 0.00 82 1014.1
20260509164550 15 253 0.0 3.2 0.00 0.00 0.00 83 1014.2
20260509164039 15 0 0.0 4.8 0.00 0.00 0.00 82 1014.0
20260509163542 15 0 0.0 4.8 0.00 0.00 0.00 82 1013.9
20260509163059 15 0 0.0 3.2 0.00 0.00 0.00 83 1014.0
20260509162541 15 297 0.0 4.8 0.00 0.00 0.00 82 1014.1
20260509162039 15 0 0.0 4.8 0.00 0.00 0.00 83 1013.9
20260509161555 15 0 0.0 4.8 0.00 0.00 0.00 81 1014.0
20260509161039 15 216 0.0 3.2 0.00 0.00 0.00 82 1013.9
20260509160541 15 216 0.0 3.2 0.00 0.00 0.00 82 1014.0
20260509160051 15 0 0.0 3.2 0.00 0.00 0.00 82 1014.2
20260509155541 15 216 0.0 3.2 0.00 0.00 0.00 82 1014.3
20260509155040 15 216 0.0 3.2 0.00 0.00 0.00 80 1014.3
20260509154602 15 0 0.0 3.2 0.00 0.00 0.00 80 1014.3
20260509154040 15 208 0.0 3.2 0.00 0.00 0.00 82 1014.3
20260509153539 15 206 0.0 3.2 0.00 0.00 0.00 79 1014.4
20260509153057 15 206 0.0 3.2 0.00 0.00 0.00 79 1014.3
20260509152539 15 206 0.0 4.8 0.00 0.00 0.00 82 1014.4
20260509152039 15 206 0.0 4.8 0.00 0.00 0.00 81 1014.4
20260509151554 15 0 1.6 4.8 0.00 0.00 0.00 81 1014.4
20260509151039 15 203 0.0 3.2 0.00 0.00 0.00 81 1014.5
20260509150539 15 203 0.0 3.2 0.00 0.00 0.00 83 1014.4
20260509150106 15 199 0.0 3.2 0.00 0.00 0.00 83 1014.4
20260509145539 15 199 0.0 3.2 0.00 0.00 0.00 83 1014.5
20260509145038 15 199 0.0 3.2 0.00 0.00 0.00 84 1014.5
20260509144556 15 0 0.0 3.2 0.00 0.00 0.00 83 1014.5
20260509144041 14 0 0.0 3.2 0.00 0.00 0.00 84 1014.5
20260509143539 14 0 0.0 3.2 0.00 0.00 0.00 84 1014.7
20260509143053 13 0 0.0 3.2 0.00 0.00 0.00 85 1014.6
20260509142539 13 0 0.0 4.8 0.00 0.00 0.00 87 1014.7
20260509142040 13 194 0.0 4.8 0.00 0.00 0.00 85 1014.4
20260509141549 13 0 0.0 3.2 0.00 0.00 0.00 86 1014.4
20260509141041 13 0 0.0 4.8 0.00 0.00 0.00 88 1014.4
20260509140539 12 0 0.0 4.8 0.00 0.00 0.00 88 1014.4
20260509140055 12 0 1.6 4.8 0.00 0.00 0.00 87 1014.4
20260509135541 12 278 0.0 4.8 0.00 0.00 0.00 88 1014.4
20260509135042 11 0 0.0 4.8 0.00 0.00 0.00 89 1014.5
20260509134549 11 0 0.0 3.2 0.00 0.00 0.00 89 1014.6
20260509134038 11 0 0.0 3.2 0.00 0.00 0.00 90 1014.7
20260509133539 11 238 0.0 3.2 0.00 0.00 0.00 90 1014.8
20260509133059 11 0 0.0 3.2 0.00 0.00 0.00 91 1014.9
20260509132539 11 0 0.0 4.8 0.00 0.00 0.00 91 1015.0
20260509132039 11 0 0.0 4.8 0.00 0.00 0.00 91 1014.7
20260509131551 11 149 0.0 6.4 0.00 0.00 0.00 91 1014.9
20260509131039 11 176 0.0 6.4 0.00 0.00 0.00 91 1015.1
20260509130539 11 0 0.0 6.4 0.00 0.00 0.00 91 1015.3
20260509130055 11 0 0.0 3.2 0.00 0.00 0.00 91 1015.2
20260509125538 11 0 0.0 4.8 0.00 0.00 0.00 91 1015.0
20260509125038 11 0 0.0 6.4 0.00 0.00 0.00 91 1015.0
20260509124556 11 0 0.0 6.4 0.00 0.00 0.00 92 1015.2
20260509124039 11 56 1.6 6.4 0.00 0.00 0.00 92 1015.3
20260509123539 11 181 0.0 6.4 0.00 0.00 0.00 92 1015.2
20260509123054 11 0 0.0 3.2 0.00 0.00 0.00 93 1015.4
20260509122538 11 0 0.0 3.2 0.00 0.00 0.00 94 1015.4
20260509122042 11 0 0.0 4.8 0.00 0.00 0.00 94 1015.3
20260509121557 11 0 0.0 4.8 0.00 0.00 0.00 94 1015.2
20260509121039 10 0 1.6 4.8 0.00 0.00 0.00 94 1015.2
20260509120539 10 39 0.0 3.2 0.00 0.00 0.00 94 1015.0
20260509120051 10 128 0.0 3.2 0.00 0.00 0.00 94 1015.0
20260509115538 10 0 0.0 4.8 0.00 0.00 0.00 94 1014.9
20260509115039 10 0 0.0 4.8 0.00 0.00 0.00 94 1015.0
20260509114600 10 157 0.0 4.8 0.00 0.00 0.00 94 1014.9
20260509114040 9 0 0.0 3.2 0.00 0.00 0.00 94 1014.8
20260509113540 9 0 0.0 1.6 0.00 0.00 0.00 94 1015.0
20260509113048 8 0 0.0 1.6 0.00 0.00 0.00 94 1015.0
20260509112539 8 0 0.0 0.0 0.00 0.00 0.00 94 1015.1
20260509112043 8 0 0.0 0.0 0.00 0.00 0.00 94 1015.1
20260509111551 8 0 0.0 0.0 0.00 0.00 0.00 94 1015.1
20260509111043 8 0 0.0 0.0 0.00 0.00 0.00 94 1015.0
20260509110538 8 0 0.0 0.0 0.00 0.00 0.00 94 1015.1
20260509110050 8 0 0.0 3.2 0.00 0.00 0.00 94 1015.1
20260509105539 8 0 0.0 3.2 0.00 0.00 0.00 94 1015.2
20260509105039 8 0 0.0 3.2 0.00 0.00 0.00 94 1015.3
20260509104550 8 0 1.6 3.2 0.00 0.00 0.00 94 1015.3
20260509104040 8 0 0.0 3.2 0.00 0.00 0.00 94 1015.3
20260509103539 8 107 1.6 3.2 0.00 0.00 0.00 94 1015.1
20260509103048 7 0 0.0 3.2 0.00 0.00 0.00 94 1015.2
20260509102538 7 0 0.0 0.0 0.00 0.00 0.00 94 1015.3
20260509102039 7 0 0.0 0.0 0.00 0.00 0.00 94 1015.3
20260509101548 7 0 0.0 0.0 0.00 0.00 0.00 94 1015.2
20260509101039 7 0 0.0 0.0 0.00 0.00 0.00 94 1015.2
20260509100539 7 0 0.0 0.0 0.00 0.00 0.00 94 1015.2
20260509100048 7 0 0.0 0.0 0.00 0.00 0.00 93 1015.2
20260509095537 7 0 0.0 0.0 0.00 0.00 0.00 93 1015.1
20260509095039 7 0 0.0 0.0 0.00 0.00 0.00 94 1015.0
20260509094552 7 0 0.0 0.0 0.00 0.00 0.00 94 1014.8
20260509094038 7 0 0.0 0.0 0.00 0.00 0.00 93 1014.6
20260509093540 7 0 0.0 3.2 0.00 0.00 0.00 93 1014.6
20260509093053 7 0 0.0 3.2 0.00 0.00 0.00 93 1014.5
20260509092539 7 0 0.0 0.0 0.00 0.00 0.00 93 1014.5
20260509092042 7 0 0.0 0.0 0.00 0.00 0.00 93 1014.6
20260509091558 7 0 0.0 1.6 0.00 0.00 0.00 93 1014.4
20260509091039 6 0 0.0 1.6 0.00 0.00 0.00 93 1014.4
20260509090540 6 0 0.0 1.6 0.00 0.00 0.00 93 1014.3
20260509090100 6 0 0.0 0.0 0.00 0.00 0.00 93 1014.4
20260509085542 6 0 0.0 0.0 0.00 0.00 0.00 93 1014.1
20260509085039 6 0 0.0 0.0 0.00 0.00 0.00 93 1014.1
20260509084556 6 0 0.0 0.0 0.00 0.00 0.00 93 1014.0
20260509084039 6 0 0.0 0.0 0.00 0.00 0.00 93 1013.8
20260509083540 6 0 0.0 0.0 0.00 0.00 0.00 93 1013.9
20260509083056 6 0 0.0 0.0 0.00 0.00 0.00 93 1013.9
20260509082538 6 0 0.0 0.0 0.00 0.00 0.00 93 1013.8
20260509082041 6 0 0.0 0.0 0.00 0.00 0.00 93 1013.8
20260509081553 6 0 0.0 0.0 0.00 0.00 0.00 93 1013.9
20260509081040 6 0 0.0 0.0 0.00 0.00 0.00 93 1014.0
20260509080537 6 0 0.0 0.0 0.00 0.00 0.00 93 1013.9
20260509080106 6 0 0.0 0.0 0.00 0.00 0.00 93 1013.8
20260509075539 6 0 0.0 0.0 0.00 0.00 0.00 93 1013.9
20260509075043 6 0 0.0 0.0 0.00 0.00 0.00 93 1014.1
20260509074550 7 0 0.0 0.0 0.00 0.00 0.00 93 1014.0
20260509074043 7 0 0.0 0.0 0.00 0.00 0.00 93 1014.1
20260509073539 7 0 0.0 0.0 0.00 0.00 0.00 93 1014.2
20260509073106 7 0 0.0 0.0 0.00 0.00 0.00 93 1014.2
20260509072539 7 0 0.0 0.0 0.00 0.00 0.00 93 1014.3
20260509072038 7 0 0.0 0.0 0.00 0.00 0.00 93 1014.4
20260509071553 7 0 0.0 0.0 0.00 0.00 0.00 93 1014.4